Regional Weather Roundup
Issued by NWS

Home | Current Version | Previous Version | Graphics & Text | Print | Product List | Glossary On
Versions: 1 2 3 4 5 6 7 8 9 10 11 12 13 14 15 16 17 18 19 20 21 22 23 24 25 26 27 28 29 30 31 32 33 34 35 36 37 38 39 40 41 42 43 44 45 46 47 48 49 50
581
ASUS43 KBIS 251910
RWRND

NORTH DAKOTA REGIONAL WEATHER ROUNDUP
NATIONAL WEATHER SERVICE BISMARCK ND
200 PM CDT SAT MAR 25 2017

NOTE: "FAIR" INDICATES FEW OR NO CLOUDS BELOW 12,000 FEET WITH NO
SIGNIFICANT WEATHER AND/OR OBSTRUCTIONS TO VISIBILITY.


NDZ001>003-009>011-017-252000-
NORTHWEST NORTH DAKOTA

CITY           SKY/WX    TMP DP  RH WIND       PRES   REMARKS
WILLISTON      CLOUDY    57  31  37 W13       29.89S
MINOT          PTSUNNY   44  34  67 S15G23    29.91F
MINOT AFB      CLOUDY    42  35  76 S17       29.90F
$$

NDZ018>021-031>035-040>046-252000-
SOUTHWEST NORTH DAKOTA

CITY           SKY/WX    TMP DP  RH WIND       PRES   REMARKS
BISMARCK       FAIR      43  34  70 SE13      30.00F
DICKINSON      FAIR      57  28  33 N9        29.89F
GARRISON         N/A     41  34  76 S14       29.94F
HETTINGER ARPT CLOUDY    53  33  46 S7        29.93F
$$

NDZ004>008-012>016-024-026-027-054-252000-
NORTHEAST NORTH DAKOTA

CITY           SKY/WX    TMP DP  RH WIND       PRES   REMARKS
GRAND FORKS    CLOUDY    37  34  89 S17       30.13F
GRND FRKS AFB  CLOUDY    35  32  88 S15       30.13S
DEVILS LAKE    CLOUDY    36  31  82 S18       30.04F
$$

NDZ022-023-025-028>030-036>039-047>053-252000-
SOUTHEAST NORTH DAKOTA

CITY           SKY/WX    TMP DP  RH WIND       PRES   REMARKS
FARGO          CLOUDY    38  33  82 S16       30.14F
JAMESTOWN      PTSUNNY   39  33  79 SE16G25   30.05F
$$





USA.gov is the U.S. government's official web portal to all federal, state and local government web resources and services.